CW8398 Weather Reports


Display with metric or nautical units.
time (UTC)temp
F
wind
direction
speed
MPH
gust
MPH
rain 1hr
in
rain 24hr
in
rain mn
in
humidity
%
barometer
mb
20260510180302 49 174 3.0 9.0 0.00 0.00 0.00 64 1005.3
20260510175802 49 178 6.0 10.0 0.00 0.00 0.00 64 1005.3
20260510175305 49 162 4.0 12.0 0.00 0.00 0.00 64 1005.3
20260510174802 49 154 5.0 12.0 0.00 0.00 0.00 64 1005.3
20260510174301 49 170 3.0 12.0 0.00 0.00 0.00 65 1005.8
20260510172802 49 172 3.0 9.0 0.00 0.00 0.00 64 1005.8
20260510172306 50 172 5.0 10.0 0.00 0.00 0.00 64 1005.8
20260510171302 50 162 3.0 12.0 0.00 0.00 0.00 62 1005.8
20260510170802 50 177 5.0 9.0 0.00 0.00 0.00 61 1005.8
20260510170302 50 169 5.0 12.0 0.00 0.00 0.00 61 1005.8
20260510165802 50 149 7.0 12.0 0.00 0.00 0.00 60 1005.8
20260510164802 51 169 6.0 17.0 0.00 0.00 0.00 61 1005.8
20260510163802 51 167 6.0 12.0 0.00 0.00 0.00 60 1006.5
20260510162802 52 169 5.0 10.0 0.00 0.00 0.00 58 1006.5
20260510162305 52 169 5.0 12.0 0.00 0.00 0.00 58 1006.5
20260510161802 52 159 5.0 12.0 0.00 0.00 0.00 57 1006.5
20260510161302 52 165 5.0 14.0 0.00 0.00 0.00 56 1006.5
20260510160802 52 162 5.0 8.0 0.00 0.00 0.00 55 1006.5
20260510160302 52 167 6.0 12.0 0.00 0.00 0.00 55 1007.3
20260510155803 52 163 5.0 9.0 0.00 0.00 0.00 55 1007.3
20260510155305 52 157 5.0 9.0 0.00 0.00 0.00 56 1007.3
20260510154802 52 155 6.0 13.0 0.00 0.00 0.00 55 1007.3
20260510154302 52 167 6.0 10.0 0.00 0.00 0.00 55 1007.3
20260510153302 53 173 6.0 12.0 0.00 0.00 0.00 54 1007.3
20260510152802 53 166 6.0 12.0 0.00 0.00 0.00 52 1007.3
20260510152306 54 153 6.0 12.0 0.00 0.00 0.00 51 1007.3
20260510151802 54 157 6.0 10.0 0.00 0.00 0.00 49 1007.3
20260510150802 55 167 6.0 12.0 0.00 0.00 0.00 46 1007.3
20260510150303 55 162 5.0 12.0 0.00 0.00 0.00 46 1007.3
20260510145305 55 171 5.0 10.0 0.00 0.00 0.00 46 1007.8
20260510144802 55 173 5.0 12.0 0.00 0.00 0.00 45 1007.8
20260510144302 55 187 4.0 9.0 0.00 0.00 0.00 45 1007.8
20260510143802 55 167 5.0 13.0 0.00 0.00 0.00 44 1007.8
20260510143302 56 179 6.0 13.0 0.00 0.00 0.00 43 1007.8
20260510142802 55 168 5.0 12.0 0.00 0.00 0.00 43 1007.8
20260510142305 55 172 7.0 14.0 0.00 0.00 0.00 43 1007.9
20260510141802 55 176 7.0 17.0 0.00 0.00 0.00 42 1007.9
20260510141303 55 166 7.0 13.0 0.00 0.00 0.00 42 1008.1
20260510140802 55 170 7.0 15.0 0.00 0.00 0.00 42 1008.1
20260510140302 55 162 6.0 17.0 0.00 0.00 0.00 42 1008.1
20260510135802 55 161 5.0 17.0 0.00 0.00 0.00 41 1008.7
20260510135305 55 181 6.0 14.0 0.00 0.00 0.00 41 1008.7
20260510134802 55 163 6.0 15.0 0.00 0.00 0.00 40 1008.7
20260510133802 55 166 9.0 17.0 0.00 0.00 0.00 39 1008.7
20260510133302 55 196 7.0 16.0 0.00 0.00 0.00 39 1008.7
20260510132802 55 177 7.0 15.0 0.00 0.00 0.00 39 1008.7
20260510131802 55 173 7.0 16.0 0.00 0.00 0.00 39 1009.1
20260510131302 55 163 8.0 20.0 0.00 0.00 0.00 37 1009.1
20260510130802 56 164 6.0 12.0 0.00 0.00 0.00 37 1009.1
20260510130302 56 165 6.0 17.0 0.00 0.00 0.00 36 1009.1
20260510125802 57 160 6.0 17.0 0.00 0.00 0.00 36 1009.1
20260510125306 57 166 6.0 12.0 0.00 0.00 0.00 37 1009.1
20260510124802 56 169 5.0 12.0 0.00 0.00 0.00 37 1009.5
20260510124302 56 158 7.0 13.0 0.00 0.00 0.00 36 1009.5
20260510123802 57 173 7.0 16.0 0.00 0.00 0.00 35 1009.5
20260510123302 57 172 7.0 15.0 0.00 0.00 0.00 36 1009.5
20260510122802 56 167 6.0 14.0 0.00 0.00 0.00 36 1009.5
20260510121802 57 182 4.0 12.0 0.00 0.00 0.00 36 1009.5
20260510121302 57 170 5.0 10.0 0.00 0.00 0.00 36 1009.5
20260510120302 57 152 6.0 13.0 0.00 0.00 0.00 38 1010.6
20260510114802 57 163 5.0 13.0 0.00 0.00 0.00 39 1010.6
20260510114302 57 174 6.0 14.0 0.00 0.00 0.00 38 1010.6
20260510113302 58 186 6.0 14.0 0.00 0.00 0.00 39 1010.6
20260510112802 58 173 4.0 12.0 0.00 0.00 0.00 40 1010.6
20260510112305 58 189 3.0 9.0 0.00 0.00 0.00 41 1010.6
20260510111802 58 159 5.0 10.0 0.00 0.00 0.00 41 1010.6
20260510111302 58 187 4.0 17.0 0.00 0.00 0.00 41 1010.6
20260510105803 57 154 6.0 12.0 0.00 0.00 0.00 42 1011.0
20260510105306 57 149 4.0 12.0 0.00 0.00 0.00 43 1011.0
20260510104302 57 163 6.0 12.0 0.00 0.00 0.00 44 1011.0
20260510103802 58 168 5.0 10.0 0.00 0.00 0.00 47 1011.0
20260510102802 57 179 5.0 10.0 0.00 0.00 0.00 47 1011.6
20260510102305 57 178 4.0 7.0 0.00 0.00 0.00 50 1011.6
20260510101802 57 170 4.0 10.0 0.00 0.00 0.00 53 1011.6
20260510100802 57 164 4.0 9.0 0.00 0.00 0.00 51 1011.6
20260510100302 57 181 6.0 12.0 0.00 0.00 0.00 52 1011.6
20260510095802 56 188 5.0 12.0 0.00 0.00 0.00 54 1011.6
20260510095305 56 171 5.0 13.0 0.00 0.00 0.00 56 1011.6
20260510094802 56 166 4.0 12.0 0.00 0.00 0.00 57 1011.6
20260510094302 55 189 6.0 10.0 0.00 0.00 0.00 56 1012.6
20260510092802 55 156 6.0 14.0 0.00 0.00 0.00 52 1012.6
20260510092306 56 168 6.0 9.0 0.00 0.00 0.00 53 1012.6
20260510091803 55 164 5.0 10.0 0.00 0.00 0.00 55 1012.6
20260510090802 56 163 4.0 9.0 0.00 0.00 0.00 53 1012.6
20260510090302 55 169 5.0 12.0 0.00 0.00 0.00 53 1012.6
20260510085803 55 169 5.0 13.0 0.00 0.00 0.00 52 1012.6
20260510085306 55 158 5.0 12.0 0.00 0.00 0.00 51 1012.6
20260510084802 55 167 5.0 12.0 0.00 0.00 0.00 50 1012.6
20260510084303 55 154 6.0 10.0 0.00 0.00 0.00 49 1012.6
20260510083802 56 166 6.0 12.0 0.00 0.00 0.00 50 1012.6
20260510083302 55 185 4.0 12.0 0.00 0.00 0.00 53 1012.6
20260510082802 55 147 3.0 12.0 0.00 0.00 0.00 52 1012.6
20260510081802 55 152 5.0 7.0 0.00 0.00 0.00 50 1012.6
20260510081302 56 175 4.0 9.0 0.00 0.00 0.00 51 1012.6
20260510080803 55 166 3.0 12.0 0.00 0.00 0.00 50 1012.6
20260510080302 55 193 2.0 8.0 0.00 0.00 0.00 50 1012.6
20260510075803 55 178 1.0 3.0 0.00 0.00 0.00 49 1012.6
20260510075306 55 136 2.0 6.0 0.00 0.00 0.00 48 1012.6
20260510074802 55 165 1.0 5.0 0.00 0.00 0.00 48 1012.6
20260510074302 55 150 3.0 9.0 0.00 0.00 0.00 50 1012.6
20260510073803 55 179 1.0 7.0 0.00 0.00 0.00 51 1014.7
20260510073302 54 246 2.0 6.0 0.00 0.00 0.00 51 1014.7
20260510072305 54 250 2.0 6.0 0.00 0.00 0.00 54 1014.7
20260510071802 54 171 4.0 9.0 0.00 0.00 0.00 55 1014.7
20260510070802 53 185 4.0 9.0 0.00 0.00 0.00 56 1014.7
20260510070302 53 189 3.0 7.0 0.00 0.00 0.00 56 1014.7
20260510065803 53 188 2.0 7.0 0.00 0.00 0.00 59 1014.7
20260510065306 52 158 2.0 5.0 0.00 0.00 0.00 58 1014.7
20260510064802 52 197 2.0 7.0 0.00 0.00 0.00 61 1014.7
20260510064303 51 180 2.0 6.0 0.00 0.00 0.00 63 1014.7
20260510063802 51 174 3.0 6.0 0.00 0.00 0.00 65 1014.7
20260510063302 50 182 3.0 6.0 0.00 0.00 0.00 67 1014.7
20260510062802 50 195 3.0 6.0 0.00 0.00 0.00 67 1014.7
20260510062306 49 183 2.0 5.0 0.00 0.00 0.00 72 1014.7
20260510061802 48 172 4.0 7.0 0.00 0.00 0.00 73 1014.7
20260510061302 48 161 2.0 7.0 0.00 0.00 0.00 76 1014.7
20260510060802 47 143 2.0 8.0 0.00 0.00 0.00 80 1014.7
20260510060302 47 166 3.0 8.0 0.00 0.00 0.00 83 1014.7
20260510055802 46 169 3.0 6.0 0.00 0.00 0.00 86 1014.7
20260510055306 45 193 2.0 5.0 0.00 0.00 0.00 90 1014.7
20260510054303 44 168 2.0 6.0 0.00 0.00 0.00 95 1014.7
20260510053803 44 174 2.0 6.0 0.00 0.00 0.00 95 1014.7
20260510053302 44 156 2.0 5.0 0.00 0.00 0.00 95 1014.7
20260510050803 42 163 1.0 3.0 0.00 0.00 0.00 95 1014.7
20260510050303 42 170 1.0 3.0 0.00 0.00 0.00 95 1014.7
20260510045803 42 174 1.0 2.0 0.00 0.00 0.00 95 1014.7
20260510045305 42 174 1.0 2.0 0.00 0.00 0.00 95 1014.7
20260510044803 42 174 1.0 3.0 0.00 0.00 0.00 95 1014.7
20260510044302 41 168 1.0 3.0 0.00 0.00 0.00 95 1014.8
20260510043803 41 170 2.0 3.0 0.00 0.00 0.00 95 1015.8
20260510042305 39 169 1.0 3.0 0.00 0.00 0.00 95 1015.8
20260510041803 38 172 2.0 3.0 0.00 0.00 0.00 95 1015.8
20260510041302 37 165 1.0 2.0 0.00 0.00 0.00 95 1015.8
20260510040302 36 165 1.0 2.0 0.00 0.00 0.00 94 1015.8
20260510035306 36 165 0.0 0.0 0.00 0.00 0.00 94 1015.8
20260510034302 35 165 0.0 0.0 0.00 0.00 0.00 94 1015.8
20260510033802 35 165 0.0 0.0 0.00 0.00 0.00 93 1015.8
20260510032802 35 165 0.0 0.0 0.00 0.00 0.00 93 1015.8
20260510031802 35 165 0.0 0.0 0.00 0.00 0.00 93 1015.8
20260510030803 35 165 0.0 0.0 0.00 0.00 0.00 93 1015.8
20260510030303 35 165 0.0 0.0 0.00 0.00 0.00 93 1016.9
20260510025802 35 165 0.0 0.0 0.00 0.00 0.00 93 1016.9
20260510024803 35 165 0.0 0.0 0.00 0.00 0.00 93 1016.9
20260510024302 35 165 0.0 0.0 0.00 0.00 0.00 93 1016.9
20260510023802 35 165 0.0 0.0 0.00 0.00 0.00 93 1016.9
20260510022803 35 165 0.0 0.0 0.00 0.00 0.00 93 1016.9
20260510022306 35 165 0.0 1.0 0.00 0.00 0.00 93 1016.9
20260510021803 35 165 0.0 1.0 0.00 0.00 0.00 93 1016.9
20260510020803 35 165 0.0 0.0 0.00 0.00 0.00 93 1016.9
20260510020303 35 165 0.0 1.0 0.00 0.00 0.00 93 1016.9
20260510015803 35 165 0.0 1.0 0.00 0.00 0.00 93 1016.9
20260510015306 35 165 1.0 2.0 0.00 0.00 0.00 93 1016.9
20260510014302 35 165 0.0 0.0 0.00 0.00 0.00 93 1016.9
20260510013802 35 165 0.0 0.0 0.00 0.00 0.00 93 1016.9
20260510013303 35 165 0.0 0.0 0.00 0.00 0.00 93 1016.9
20260510012802 35 165 0.0 0.0 0.00 0.00 0.00 92 1016.9
20260510012306 35 165 0.0 0.0 0.00 0.00 0.00 92 1016.9
20260510011803 35 165 0.0 0.0 0.00 0.00 0.00 92 1016.9
20260510011302 35 165 0.0 0.0 0.00 0.00 0.00 92 1018.2
20260510010303 35 165 0.0 0.0 0.00 0.00 0.00 92 1018.2
20260510005803 35 165 0.0 1.0 0.00 0.00 0.00 92 1018.2
20260510005306 35 165 1.0 1.0 0.00 0.00 0.00 92 1018.2
20260510003302 35 165 1.0 2.0 0.00 0.00 0.00 91 1018.2
20260510002803 35 165 1.0 2.0 0.00 0.00 0.00 91 1018.2
20260510002306 35 165 1.0 2.0 0.00 0.00 0.00 91 1018.2
20260510001803 35 165 1.0 1.0 0.00 0.00 0.00 90 1018.2
20260510001303 36 165 1.0 2.0 0.00 0.00 0.00 90 1018.2
20260510000803 36 165 1.0 2.0 0.00 0.00 0.00 90 1018.2
20260510000304 36 165 0.0 1.0 0.00 0.00 0.00 90 1018.2
20260509235803 36 165 0.0 0.0 0.00 0.00 0.00 90 1018.2
20260509235306 36 165 0.0 0.0 0.00 0.00 0.00 90 1018.2
20260509234803 36 165 0.0 0.0 0.00 0.00 0.00 90 1018.2
20260509234303 36 165 0.0 0.0 0.00 0.00 0.00 90 1018.2
20260509233802 37 165 0.0 0.0 0.00 0.00 0.00 90 1018.2
20260509233302 37 165 0.0 0.0 0.00 0.00 0.00 90 1018.2
20260509232802 37 165 0.0 0.0 0.00 0.00 0.00 90 1018.2
20260509232306 37 165 0.0 0.0 0.00 0.00 0.00 90 1018.2
20260509231803 37 165 0.0 0.0 0.00 0.00 0.00 90 1018.2
20260509230803 37 165 0.0 0.0 0.00 0.00 0.00 90 1018.3
20260509230303 37 165 0.0 0.0 0.00 0.00 0.00 90 1018.3
20260509225305 37 165 0.0 0.0 0.00 0.00 0.00 89 1018.4
20260509224303 37 165 0.0 0.0 0.00 0.00 0.00 89 1019.2
20260509223303 38 165 0.0 0.0 0.00 0.00 0.00 89 1019.2
20260509222802 38 165 0.0 0.0 0.00 0.00 0.00 89 1019.2
20260509222306 38 165 0.0 0.0 0.00 0.00 0.00 89 1019.2
20260509221803 38 165 0.0 0.0 0.00 0.00 0.00 89 1019.2
20260509221303 38 165 0.0 0.0 0.00 0.00 0.00 89 1019.2
20260509220816 38 165 0.0 0.0 0.00 0.00 0.00 89 1019.2
20260509220302 38 165 0.0 0.0 0.00 0.00 0.00 88 1019.2
20260509215305 38 165 0.0 0.0 0.00 0.00 0.00 88 1019.2
20260509214803 38 165 0.0 0.0 0.00 0.00 0.00 88 1019.2
20260509214302 39 165 0.0 0.0 0.00 0.00 0.00 87 1019.2
20260509213802 39 165 0.0 0.0 0.00 0.00 0.00 87 1019.2
20260509211802 39 165 0.0 1.0 0.00 0.00 0.00 87 1019.3
20260509211303 39 165 0.0 0.0 0.00 0.00 0.00 86 1019.4
20260509210803 39 165 0.0 0.0 0.00 0.00 0.00 85 1019.4
20260509210303 39 165 0.0 0.0 0.00 0.00 0.00 84 1019.4
20260509205803 39 165 0.0 0.0 0.00 0.00 0.00 83 1019.4
20260509205306 39 165 0.0 0.0 0.00 0.00 0.00 83 1020.5
20260509204804 39 165 0.0 0.0 0.00 0.00 0.00 83 1020.5
20260509204302 39 165 0.0 0.0 0.00 0.00 0.00 82 1020.5
20260509203802 39 165 0.0 0.0 0.00 0.00 0.00 82 1020.5
20260509203303 40 165 0.0 0.0 0.00 0.00 0.00 81 1020.5
20260509202803 40 165 0.0 0.0 0.00 0.00 0.00 80 1020.5
20260509202306 40 165 0.0 0.0 0.00 0.00 0.00 81 1020.5
20260509201803 40 165 0.0 0.0 0.00 0.00 0.00 80 1020.5
20260509201303 40 165 0.0 0.0 0.00 0.00 0.00 80 1020.5
20260509200302 41 165 0.0 0.0 0.00 0.00 0.00 80 1020.5
20260509195803 41 165 0.0 0.0 0.00 0.00 0.00 80 1020.5
20260509195306 41 165 0.0 0.0 0.00 0.00 0.00 80 1020.5
20260509194803 41 165 0.0 0.0 0.00 0.00 0.00 79 1020.5
20260509194303 42 165 0.0 0.0 0.00 0.00 0.00 78 1020.5
20260509193803 42 165 0.0 0.0 0.00 0.00 0.00 77 1020.5
20260509193303 42 165 0.0 0.0 0.00 0.00 0.00 76 1020.5
20260509192803 42 165 0.0 0.0 0.00 0.00 0.00 75 1020.5
20260509192306 43 165 0.0 1.0 0.00 0.00 0.00 74 1020.5
20260509191803 43 165 0.0 1.0 0.00 0.00 0.00 74 1020.5
20260509191303 43 165 0.0 1.0 0.00 0.00 0.00 74 1020.5
20260509190303 44 165 0.0 1.0 0.00 0.00 0.00 73 1020.5
20260509185803 44 165 0.0 0.0 0.00 0.00 0.00 72 1020.5
20260509185306 45 165 0.0 0.0 0.00 0.00 0.00 72 1020.5
20260509184803 45 165 0.0 0.0 0.00 0.00 0.00 73 1020.5
20260509184303 45 165 0.0 0.0 0.00 0.00 0.00 73 1020.5
20260509183803 45 165 0.0 0.0 0.00 0.00 0.00 72 1020.5
20260509183302 46 165 0.0 1.0 0.00 0.00 0.00 72 1020.4
20260509182803 46 165 0.0 2.0 0.00 0.00 0.00 71 1020.4
20260509182306 46 165 0.0 1.0 0.00 0.00 0.00 71 1020.4
20260509181302 47 165 1.0 5.0 0.00 0.00 0.00 70 1020.4